weather.gov     
National Weather Service

Terminal Aerodrome Forecast
NWS Homepage
This page is being discontinued on March 12, 2014.
The same data is available at this site. Please update your bookmarks.
Thank you, and we apologize for the inconvenience.
Please send an email to SR-SRH.Webmaster@noaa.gov with any concerns.


Current Version
Previous Version:    01  02  03  04  05  06  07  08  09  10  11  12  13  14  15  16  17  18  19  20  21  22  23  24  25  26  27  
[Printable]
397
FTUS43 KBIS 242300
TAFJMS
TAF
KJMS 242320Z 2500/2524 14012KT P6SM SCT040
     FM250100 12011KT P6SM SCT140
     FM250500 12011KT P6SM VCTS BKN100CB
     FM250900 35008KT P6SM BKN080
     FM251100 32009KT P6SM BKN030
     FM251500 31013KT P6SM SCT250=


U.S. Dept. of Commerce
NOAA National Weather Service
1325 East West Highway
Silver Spring, MD 20910
E-mail: w-nws.webmaster@noaa.gov
Page last modified: May 16, 2007
NATIONAL WEATHER SERVICE: for Safety, for Work, for Fun - FOR LIFE